TimeEST,TemperatureF,Dew PointF,Humidity,Sea Level PressureIn,VisibilityMPH,Wind Direction,Wind SpeedMPH,Gust SpeedMPH,PrecipitationIn,Events,Conditions,WindDirDegrees,DateUTC
12:15 AM,32.0,24.8,75,30.65,10.0,Calm,Calm,-,N/A,,Clear,0,2012-11-18 05:15:00
12:55 AM,35.6,24.8,65,30.65,10.0,ENE,4.6,-,N/A,,Clear,70,2012-11-18 05:55:00
1:15 AM,35.6,24.8,65,30.65,10.0,East,4.6,-,N/A,,Clear,90,2012-11-18 06:15:00
1:35 AM,33.8,24.8,70,30.65,10.0,ENE,3.5,-,N/A,,Clear,70,2012-11-18 06:35:00
1:55 AM,33.8,24.8,70,30.65,10.0,ENE,3.5,-,N/A,,Clear,70,2012-11-18 06:55:00
2:15 AM,33.8,24.8,70,30.66,10.0,Calm,Calm,-,N/A,,Clear,0,2012-11-18 07:15:00
2:55 AM,33.8,24.8,70,30.64,10.0,NE,4.6,-,N/A,,Clear,50,2012-11-18 07:55:00
3:15 AM,33.8,24.8,70,30.65,10.0,NE,5.8,-,N/A,,Clear,40,2012-11-18 08:15:00
3:35 AM,33.8,24.8,70,30.65,10.0,NE,5.8,-,N/A,,Clear,40,2012-11-18 08:35:00
3:55 AM,33.8,23.0,65,30.65,10.0,NE,5.8,-,N/A,,Clear,40,2012-11-18 08:55:00
4:15 AM,33.8,24.8,70,30.66,10.0,NE,5.8,-,N/A,,Clear,40,2012-11-18 09:15:00
4:35 AM,33.8,23.0,65,30.66,10.0,NE,5.8,-,N/A,,Clear,40,2012-11-18 09:35:00
4:55 AM,33.8,23.0,65,30.67,10.0,NE,5.8,-,N/A,,Clear,50,2012-11-18 09:55:00
5:15 AM,32.0,21.2,64,30.67,10.0,NE,5.8,-,N/A,,Clear,40,2012-11-18 10:15:00
5:35 AM,33.8,23.0,65,30.67,10.0,NE,8.1,-,N/A,,Clear,50,2012-11-18 10:35:00
5:45 AM,33.8,21.2,60,30.67,10.0,ENE,6.9,-,N/A,,Clear,70,2012-11-18 10:45:00
6:45 AM,32.0,21.2,64,30.68,10.0,ENE,5.8,-,N/A,,Clear,70,2012-11-18 11:45:00
7:45 AM,33.8,21.2,60,30.68,10.0,ENE,5.8,-,N/A,,Clear,60,2012-11-18 12:45:00
8:45 AM,35.6,23.0,60,30.68,10.0,NE,10.4,-,N/A,,Clear,40,2012-11-18 13:45:00
9:45 AM,39.2,26.6,61,30.70,10.0,NE,6.9,-,N/A,,Clear,50,2012-11-18 14:45:00
10:45 AM,41.0,28.4,61,30.69,10.0,ENE,6.9,-,N/A,,Clear,70,2012-11-18 15:45:00
11:45 AM,44.6,28.4,53,30.66,10.0,East,9.2,-,N/A,,Clear,80,2012-11-18 16:45:00
12:45 PM,46.4,28.4,50,30.64,10.0,East,6.9,-,N/A,,Clear,90,2012-11-18 17:45:00
1:45 PM,44.6,28.4,53,30.63,10.0,ENE,6.9,-,N/A,,Clear,70,2012-11-18 18:45:00
2:45 PM,44.6,28.4,53,30.62,10.0,East,8.1,-,N/A,,Clear,90,2012-11-18 19:45:00
4:45 PM,42.8,26.6,53,30.63,10.0,NE,4.6,-,N/A,,Clear,50,2012-11-18 21:45:00
5:45 PM,41.0,28.4,61,30.62,10.0,NE,6.9,-,N/A,,Clear,50,2012-11-18 22:45:00
6:45 PM,39.2,26.6,61,30.63,10.0,NE,4.6,-,N/A,,Clear,50,2012-11-18 23:45:00
7:45 PM,39.2,26.6,61,30.63,10.0,ENE,4.6,-,N/A,,Clear,60,2012-11-19 00:45:00
8:55 PM,37.4,26.6,65,30.62,10.0,ENE,5.8,-,N/A,,Clear,60,2012-11-19 01:55:00
9:15 PM,37.4,26.6,65,30.62,10.0,ENE,5.8,-,N/A,,Clear,60,2012-11-19 02:15:00
9:35 PM,37.4,26.6,65,30.62,10.0,ENE,5.8,-,N/A,,Clear,70,2012-11-19 02:35:00
9:55 PM,35.6,26.6,70,30.61,10.0,ENE,5.8,-,N/A,,Clear,70,2012-11-19 02:55:00
10:15 PM,35.6,26.6,70,30.61,10.0,ENE,4.6,-,N/A,,Clear,60,2012-11-19 03:15:00
10:55 PM,35.6,26.6,70,30.61,10.0,ENE,6.9,-,N/A,,Clear,70,2012-11-19 03:55:00
11:55 PM,33.8,24.8,70,30.61,10.0,NE,4.6,-,N/A,,Clear,40,2012-11-19 04:55:00